KCIKMI Weather Reports


Display with metric or nautical units.
time (UTC)temp
F
wind
direction
speed
MPH
gust
MPH
rain 1hr
in
rain 24hr
in
rain mn
in
humidity
%
barometer
mb
20260505090037 51 192 0.0 0.0 0.00 0.00 0.00 89 1009.4
20260505085534 52 197 0.0 0.0 0.00 0.00 0.00 89 1009.5
20260505085033 52 203 0.0 0.0 0.00 0.00 0.00 89 1009.6
20260505084531 52 204 0.0 0.0 0.00 0.00 0.00 89 1009.5
20260505084031 52 176 0.0 0.0 0.00 0.00 0.00 89 1009.5
20260505083531 52 196 0.0 1.0 0.00 0.00 0.00 89 1009.5
20260505083030 52 186 0.0 1.0 0.00 0.00 0.00 89 1009.6
20260505082530 52 185 0.0 1.0 0.00 0.00 0.00 89 1009.5
20260505082030 51 181 0.0 0.0 0.00 0.00 0.00 89 1009.5
20260505081541 51 203 0.0 0.0 0.00 0.00 0.00 89 1009.5
20260505081030 51 197 0.0 0.0 0.00 0.00 0.00 89 1009.6
20260505080530 51 204 0.0 0.0 0.00 0.00 0.00 89 1009.6
20260505080033 51 207 0.0 0.0 0.00 0.00 0.00 89 1009.6
20260505075528 51 195 0.0 0.0 0.00 0.00 0.00 88 1009.6
20260505075031 51 195 0.0 0.0 0.00 0.00 0.00 87 1009.6
20260505074527 51 195 0.0 0.0 0.00 0.00 0.00 87 1009.7
20260505074027 51 195 0.0 0.0 0.00 0.00 0.00 87 1009.6
20260505073531 51 195 0.0 2.0 0.00 0.00 0.00 87 1009.5
20260505073038 52 195 0.0 2.0 0.00 0.00 0.00 87 1009.5
20260505072526 51 190 0.0 2.0 0.00 0.00 0.00 88 1009.6
20260505072027 51 204 0.0 0.0 0.00 0.00 0.00 88 1009.6
20260505071543 51 204 0.0 0.0 0.00 0.00 0.00 88 1009.6
20260505071025 51 204 0.0 0.0 0.00 0.00 0.00 87 1009.6
20260505070526 51 204 0.0 0.0 0.00 0.00 0.00 87 1009.7
20260505070024 51 199 0.0 0.0 0.00 0.00 0.00 87 1009.7
20260505065527 51 199 0.0 0.0 0.00 0.00 0.00 87 1009.7
20260505065026 51 199 0.0 0.0 0.00 0.00 0.00 87 1009.7
20260505064525 51 202 0.0 0.0 0.00 0.00 0.00 87 1009.7
20260505064026 51 202 0.0 0.0 0.00 0.00 0.00 87 1009.8
20260505063522 51 199 0.0 0.0 0.00 0.00 0.00 86 1009.8
20260505063022 51 200 0.0 0.0 0.00 0.00 0.00 86 1009.8
20260505062520 51 200 0.0 0.0 0.00 0.00 0.00 85 1009.8
20260505062020 52 199 0.0 0.0 0.00 0.00 0.00 85 1009.8
20260505061520 52 199 0.0 0.0 0.00 0.00 0.00 85 1009.8
20260505061022 52 199 0.0 2.0 0.00 0.00 0.00 85 1009.8
20260505060523 52 199 0.0 2.0 0.00 0.00 0.00 85 1009.8
20260505060019 52 192 0.0 1.0 0.00 0.00 0.00 85 1009.9
20260505055518 52 178 0.0 2.0 0.00 0.00 0.00 85 1009.9
20260505055018 52 190 0.0 2.0 0.00 0.00 0.00 86 1009.9
20260505054517 51 191 0.0 0.0 0.00 0.00 0.00 86 1010.0
20260505054017 51 203 0.0 0.0 0.00 0.00 0.00 86 1009.9
20260505053515 51 202 0.0 0.0 0.00 0.00 0.00 86 1010.0
20260505053023 51 197 0.0 0.0 0.00 0.00 0.00 86 1010.0
20260505052518 51 196 0.0 0.0 0.00 0.00 0.00 86 1010.0
20260505052015 51 204 0.0 0.0 0.00 0.00 0.00 86 1010.0
20260505051527 51 202 0.0 0.0 0.00 0.00 0.00 86 1009.9
20260505051016 51 202 0.0 0.0 0.00 0.00 0.00 85 1009.9
20260505050516 51 203 0.0 0.0 0.00 0.00 0.00 85 1009.9
20260505041513 52 197 0.0 0.0 0.00 0.00 0.00 83 1010.2
20260505041005 52 197 0.0 1.0 0.00 0.00 0.00 83 1010.2
20260505040504 52 194 0.0 1.0 0.00 0.00 0.00 83 1010.2
20260505040006 52 195 0.0 3.0 0.00 0.00 0.00 82 1010.3
20260505035502 52 192 1.0 3.0 0.00 0.00 0.00 82 1010.2
20260505035002 52 218 0.0 3.0 0.00 0.00 0.00 82 1010.2
20260505034502 53 194 0.0 3.0 0.00 0.00 0.00 82 1010.2
20260505034002 53 192 0.0 3.0 0.00 0.00 0.00 82 1010.2
20260505033502 53 181 0.0 2.0 0.00 0.00 0.00 82 1010.2
20260505033002 53 202 0.0 0.0 0.00 0.00 0.00 82 1010.1
20260505032501 53 209 0.0 0.0 0.00 0.00 0.00 81 1010.1
20260505032004 53 202 0.0 0.0 0.00 0.00 0.00 81 1010.1
20260505031501 53 196 0.0 1.0 0.00 0.00 0.00 80 1010.1
20260505031000 53 196 0.0 1.0 0.00 0.00 0.00 80 1010.2
20260505030600 53 187 0.0 1.0 0.00 0.00 0.00 80 1010.2
20260505030105 53 187 0.0 1.0 0.00 0.00 0.00 79 1010.2
20260505025600 53 193 0.0 2.0 0.00 0.00 0.00 79 1010.2
20260505025100 53 193 0.0 3.0 0.00 0.00 0.00 79 1010.2
20260505024601 54 192 0.0 4.0 0.00 0.00 0.00 79 1010.2
20260505024102 53 197 1.0 4.0 0.00 0.00 0.00 79 1010.2
20260505023559 54 216 0.0 0.0 0.00 0.00 0.00 78 1010.2
20260505023108 54 202 0.0 0.0 0.00 0.00 0.00 78 1010.2
20260505022559 54 229 0.0 0.0 0.00 0.00 0.00 78 1010.3
20260505022059 54 198 0.0 0.0 0.00 0.00 0.00 77 1010.3
20260505021601 54 202 0.0 1.0 0.00 0.00 0.00 77 1010.3
20260505021057 54 202 0.0 2.0 0.00 0.00 0.00 76 1010.4
20260505020558 54 204 0.0 3.0 0.00 0.00 0.00 76 1010.3
20260505015558 54 208 0.0 3.0 0.00 0.00 0.00 76 1010.4
20260505015157 54 199 0.0 3.0 0.00 0.00 0.00 76 1010.4
20260505014556 55 203 0.0 3.0 0.00 0.00 0.00 76 1010.3
20260505014055 55 197 0.0 0.0 0.00 0.00 0.00 75 1010.3
20260505013556 55 194 0.0 1.0 0.00 0.00 0.00 75 1010.3
20260505013056 55 176 0.0 1.0 0.00 0.00 0.00 75 1010.2
20260505012556 55 200 0.0 1.0 0.00 0.00 0.00 74 1010.2
20260505012058 55 197 0.0 2.0 0.00 0.00 0.00 74 1010.1
20260505011556 55 214 0.0 2.0 0.00 0.00 0.00 73 1010.0
20260505011057 56 192 0.0 2.0 0.00 0.00 0.00 73 1009.9
20260505010555 56 182 0.0 3.0 0.00 0.00 0.00 72 1009.9
20260505005554 56 213 0.0 3.0 0.00 0.00 0.00 71 1009.6
20260505005054 57 202 1.0 4.0 0.00 0.00 0.00 70 1009.4
20260505004554 57 185 1.0 4.0 0.00 0.00 0.00 70 1009.3
20260505004053 57 196 0.0 2.0 0.00 0.00 0.00 69 1009.2
20260505003557 57 202 0.0 3.0 0.00 0.00 0.00 69 1009.2
20260505003057 57 219 1.0 5.0 0.00 0.00 0.00 68 1009.1
20260505002555 57 185 1.0 5.0 0.00 0.00 0.00 68 1009.0
20260505002052 57 199 1.0 4.0 0.00 0.00 0.00 67 1008.9
20260505001553 58 204 1.0 3.0 0.00 0.00 0.00 67 1008.8
20260505001053 58 217 0.0 4.0 0.00 0.00 0.00 66 1008.8
20260505000552 58 184 0.0 8.0 0.00 0.00 0.00 65 1008.6
20260505000100 58 190 2.0 8.0 0.00 0.00 0.00 64 1008.6
20260504235551 59 189 0.0 4.0 0.00 0.00 0.00 63 1008.5
20260504235052 59 185 1.0 6.0 0.00 0.00 0.00 62 1008.3
20260504234551 59 228 1.0 6.0 0.00 0.00 0.00 60 1008.3
20260504234052 60 180 1.0 6.0 0.00 0.00 0.00 60 1008.3
20260504233550 60 209 1.0 6.0 0.00 0.00 0.00 59 1008.2
20260504233053 60 178 2.0 5.0 0.00 0.00 0.00 58 1008.2
20260504232550 61 177 1.0 7.0 0.00 0.00 0.00 56 1008.2
20260504232052 61 212 2.0 7.0 0.00 0.00 0.00 55 1008.1
20260504231549 61 199 2.0 7.0 0.00 0.00 0.00 55 1008.0
20260504231049 62 195 2.0 7.0 0.00 0.00 0.00 55 1008.0
20260504230551 62 177 1.0 10.0 0.00 0.00 0.00 55 1007.7
20260504230049 62 185 2.0 10.0 0.00 0.00 0.00 54 1007.7
20260504225548 63 214 2.0 7.0 0.00 0.00 0.00 53 1007.7
20260504225050 63 210 1.0 6.0 0.00 0.00 0.00 52 1007.7
20260504224549 63 180 3.0 6.0 0.00 0.00 0.00 51 1007.6
20260504224050 63 199 2.0 7.0 0.00 0.00 0.00 51 1007.6
20260504223548 64 181 2.0 10.0 0.00 0.00 0.00 51 1007.6
20260504223047 64 186 3.0 10.0 0.00 0.00 0.00 49 1007.6
20260504222547 65 181 3.0 7.0 0.00 0.00 0.00 48 1007.5
20260504222046 65 186 3.0 8.0 0.00 0.00 0.00 46 1007.4
20260504221546 65 169 3.0 9.0 0.00 0.00 0.00 47 1007.3
20260504221048 66 205 3.0 9.0 0.00 0.00 0.00 46 1007.3
20260504220546 66 214 3.0 9.0 0.00 0.00 0.00 46 1007.3
20260504220108 67 194 2.0 9.0 0.00 0.00 0.00 46 1007.3
20260504215546 67 192 2.0 9.0 0.00 0.00 0.00 46 1007.2
20260504215145 67 204 3.0 9.0 0.00 0.00 0.00 45 1007.2
20260504214552 67 205 4.0 8.0 0.00 0.00 0.00 45 1007.4
20260504214044 67 182 3.0 10.0 0.00 0.00 0.00 45 1007.3
20260504213545 67 209 3.0 10.0 0.00 0.00 0.00 45 1007.2
20260504213051 67 195 2.0 10.0 0.00 0.00 0.00 45 1007.2
20260504212544 67 197 3.0 10.0 0.00 0.00 0.00 46 1007.2
20260504212045 67 189 3.0 10.0 0.00 0.00 0.00 45 1007.3
20260504211544 67 202 3.0 10.0 0.00 0.00 0.00 44 1007.2
20260504211043 68 198 3.0 10.0 0.00 0.00 0.00 44 1007.2
20260504210543 68 203 3.0 9.0 0.00 0.00 0.00 45 1007.2
20260504210043 68 178 3.0 11.0 0.00 0.00 0.00 44 1007.2
20260504205543 69 211 3.0 11.0 0.00 0.00 0.00 43 1007.2
20260504205044 69 185 4.0 11.0 0.00 0.00 0.00 43 1007.2
20260504204543 70 171 2.0 7.0 0.00 0.00 0.00 43 1007.1
20260504204042 71 185 2.0 8.0 0.00 0.00 0.00 41 1007.1
20260504203542 71 193 2.0 8.0 0.00 0.00 0.00 41 1007.1
20260504203042 71 192 3.0 11.0 0.00 0.00 0.00 40 1007.0
20260504202542 71 189 4.0 11.0 0.00 0.00 0.00 41 1007.0
20260504202042 71 209 3.0 10.0 0.00 0.00 0.00 39 1007.1
20260504201541 71 229 2.0 8.0 0.00 0.00 0.00 40 1007.0
20260504201045 71 100 2.0 9.0 0.00 0.00 0.00 40 1006.9
20260504200541 71 166 3.0 9.0 0.00 0.00 0.00 39 1007.0
20260504200048 71 171 3.0 14.0 0.00 0.00 0.00 39 1007.0
20260504195540 71 169 4.0 14.0 0.00 0.00 0.00 38 1007.2
20260504195039 71 179 4.0 11.0 0.00 0.00 0.00 38 1007.1
20260504194542 71 157 4.0 10.0 0.00 0.00 0.00 39 1007.0
20260504194039 71 188 3.0 9.0 0.00 0.00 0.00 39 1007.0
20260504193539 71 193 4.0 10.0 0.00 0.00 0.00 38 1007.1
20260504193038 71 225 3.0 10.0 0.00 0.00 0.00 38 1007.0
20260504192537 71 209 5.0 9.0 0.00 0.00 0.00 37 1007.1
20260504192037 71 165 3.0 10.0 0.00 0.00 0.00 39 1007.1
20260504191550 71 167 4.0 10.0 0.00 0.00 0.00 36 1007.0
20260504191038 71 206 5.0 11.0 0.00 0.00 0.00 36 1007.1
20260504190539 71 169 4.0 14.0 0.00 0.00 0.00 36 1007.0
20260504190043 71 213 5.0 14.0 0.00 0.00 0.00 35 1007.2
20260504185535 72 161 3.0 9.0 0.00 0.00 0.00 35 1007.2
20260504185034 71 197 3.0 9.0 0.00 0.00 0.00 36 1007.3
20260504184545 72 164 4.0 9.0 0.00 0.00 0.00 36 1007.3
20260504184034 72 209 3.0 9.0 0.00 0.00 0.00 34 1007.3
20260504183533 72 272 3.0 10.0 0.00 0.00 0.00 33 1007.5
20260504183041 72 171 3.0 11.0 0.00 0.00 0.00 34 1007.4
20260504182533 71 154 4.0 11.0 0.00 0.00 0.00 32 1007.4
20260504182033 71 228 2.0 11.0 0.00 0.00 0.00 35 1007.6
20260504181531 71 189 4.0 10.0 0.00 0.00 0.00 33 1007.6
20260504181031 71 242 4.0 11.0 0.00 0.00 0.00 33 1007.7
20260504180532 71 332 5.0 11.0 0.00 0.00 0.00 34 1007.8
20260504180030 71 184 2.0 11.0 0.00 0.00 0.00 35 1007.8
20260504175529 71 195 5.0 13.0 0.00 0.00 0.00 32 1007.8
20260504175032 71 171 4.0 13.0 0.00 0.00 0.00 32 1007.7
20260504174530 71 180 2.0 10.0 0.00 0.00 0.00 34 1007.6
20260504174028 71 187 2.0 10.0 0.00 0.00 0.00 34 1007.8
20260504173527 70 179 4.0 11.0 0.00 0.00 0.00 35 1007.8
20260504173029 70 150 3.0 11.0 0.00 0.00 0.00 32 1007.7
20260504172526 70 3 3.0 12.0 0.00 0.00 0.00 33 1007.7
20260504172027 70 196 6.0 12.0 0.00 0.00 0.00 33 1007.8
20260504171525 70 221 3.0 8.0 0.00 0.00 0.00 34 1007.8
20260504171025 70 170 3.0 8.0 0.00 0.00 0.00 33 1007.9
20260504170525 70 197 4.0 11.0 0.00 0.00 0.00 34 1007.8
20260504151006 66 188 2.0 7.0 0.00 0.00 0.00 39 1009.1
20260504150509 66 218 1.0 11.0 0.00 0.00 0.00 42 1009.1
20260504141055 63 113 1.0 5.0 0.00 0.00 0.00 43 1009.9
20260504140555 63 240 1.0 6.0 0.00 0.00 0.00 43 1009.8
20260504130542 59 179 0.0 5.0 0.00 0.00 0.00 49 1010.1
20260504110513 49 12 0.0 1.0 0.00 0.00 0.00 65 1010.3
20260504100503 42 163 0.0 0.0 0.00 0.00 0.00 75 1010.2